Year,Month,Day,Hour,Minute,Value (Times are PST for temperature in C)
2020,08,08,00,00,13.20
2020,08,08,00,01,13.20
2020,08,08,00,02,13.20
2020,08,08,00,03,13.20
2020,08,08,00,04,13.20
2020,08,08,00,05,13.20
2020,08,08,00,06,13.20
2020,08,08,00,07,13.20
2020,08,08,00,08,13.20
2020,08,08,00,09,13.20
2020,08,08,00,10,13.20
2020,08,08,00,11,13.20
2020,08,08,00,12,13.20
2020,08,08,00,13,13.20
2020,08,08,00,14,13.10
2020,08,08,00,15,13.10
2020,08,08,00,16,13.10
2020,08,08,00,17,13.10
2020,08,08,00,18,13.10
2020,08,08,00,19,13.10
2020,08,08,00,20,13.00
2020,08,08,00,21,13.00
2020,08,08,00,22,13.00
2020,08,08,00,23,13.00
2020,08,08,00,24,13.00
2020,08,08,00,25,12.90
2020,08,08,00,26,12.90
2020,08,08,00,27,12.90
2020,08,08,00,28,12.90
2020,08,08,00,29,12.90
2020,08,08,00,30,12.90
2020,08,08,00,31,12.90
2020,08,08,00,32,12.90
2020,08,08,00,33,12.90
2020,08,08,00,34,12.90
2020,08,08,00,35,12.90
2020,08,08,00,36,12.80
2020,08,08,00,37,12.80
2020,08,08,00,38,12.80
2020,08,08,00,39,12.80
2020,08,08,00,40,12.80
2020,08,08,00,41,12.80
2020,08,08,00,42,12.80
2020,08,08,00,43,12.80
2020,08,08,00,44,12.80
2020,08,08,00,45,12.80
2020,08,08,00,46,12.80
2020,08,08,00,47,12.80
2020,08,08,00,48,12.80
2020,08,08,00,49,12.80
2020,08,08,00,50,12.80
2020,08,08,00,51,12.80
2020,08,08,00,52,12.80
2020,08,08,00,53,12.80
2020,08,08,00,54,12.80
2020,08,08,00,55,12.80
2020,08,08,00,56,12.80
2020,08,08,00,57,12.80
2020,08,08,00,58,12.80
2020,08,08,00,59,12.80
2020,08,08,01,00,12.80
2020,08,08,01,01,12.80
2020,08,08,01,02,12.80
2020,08,08,01,03,12.80
2020,08,08,01,04,12.80
2020,08,08,01,05,12.80
2020,08,08,01,06,12.80
2020,08,08,01,07,12.80
2020,08,08,01,08,12.80
2020,08,08,01,09,12.80
2020,08,08,01,10,12.80
2020,08,08,01,11,12.80
2020,08,08,01,12,12.80
2020,08,08,01,13,12.80
2020,08,08,01,14,12.90
2020,08,08,01,15,12.80
2020,08,08,01,16,12.90
2020,08,08,01,17,12.90
2020,08,08,01,18,12.90
2020,08,08,01,19,12.90
2020,08,08,01,20,12.90
2020,08,08,01,21,12.90
2020,08,08,01,22,12.90
2020,08,08,01,23,12.90
2020,08,08,01,24,12.90
2020,08,08,01,25,12.90
2020,08,08,01,26,12.90
2020,08,08,01,27,12.90
2020,08,08,01,28,12.80
2020,08,08,01,29,12.80
2020,08,08,01,30,12.80
2020,08,08,01,31,12.80
2020,08,08,01,32,12.80
2020,08,08,01,33,12.80
2020,08,08,01,34,12.80
2020,08,08,01,35,12.80
2020,08,08,01,36,12.80
2020,08,08,01,37,12.80
2020,08,08,01,38,12.80
2020,08,08,01,39,12.80
2020,08,08,01,40,12.80
2020,08,08,01,41,12.80
2020,08,08,01,42,12.80
2020,08,08,01,43,12.80
2020,08,08,01,44,12.70
2020,08,08,01,45,12.70
2020,08,08,01,46,12.70
2020,08,08,01,47,12.70
2020,08,08,01,48,12.70
2020,08,08,01,49,12.70
2020,08,08,01,50,12.70
2020,08,08,01,51,12.70
2020,08,08,01,52,12.70
2020,08,08,01,53,12.70
2020,08,08,01,54,12.70
2020,08,08,01,55,12.80
2020,08,08,01,56,12.80
2020,08,08,01,57,12.80
2020,08,08,01,58,12.80
2020,08,08,01,59,12.80
2020,08,08,02,00,12.80
2020,08,08,02,01,12.80
2020,08,08,02,02,12.80
2020,08,08,02,03,12.80
2020,08,08,02,04,12.80
2020,08,08,02,05,12.80
2020,08,08,02,06,12.80
2020,08,08,02,07,12.80
2020,08,08,02,08,12.80
2020,08,08,02,09,12.80
2020,08,08,02,10,12.80
2020,08,08,02,11,12.80
2020,08,08,02,12,12.80
2020,08,08,02,13,12.80
2020,08,08,02,14,12.80
2020,08,08,02,15,12.80
2020,08,08,02,16,12.80
2020,08,08,02,17,12.80
2020,08,08,02,18,12.80
2020,08,08,02,19,12.80
2020,08,08,02,20,12.80
2020,08,08,02,21,12.80
2020,08,08,02,22,12.80
2020,08,08,02,23,12.80
2020,08,08,02,24,12.80
2020,08,08,02,25,12.80
2020,08,08,02,26,12.80
2020,08,08,02,27,12.80
2020,08,08,02,28,12.80
2020,08,08,02,29,12.80
2020,08,08,02,30,12.80
2020,08,08,02,31,12.80
2020,08,08,02,32,12.80
2020,08,08,02,33,12.80
2020,08,08,02,34,12.80
2020,08,08,02,35,12.80
2020,08,08,02,36,12.80
2020,08,08,02,37,12.80
2020,08,08,02,38,12.80
2020,08,08,02,39,12.80
2020,08,08,02,40,12.80
2020,08,08,02,41,12.80
2020,08,08,02,42,12.80
2020,08,08,02,43,12.80
2020,08,08,02,44,12.80
2020,08,08,02,45,12.90
2020,08,08,02,46,12.90
2020,08,08,02,47,12.90
2020,08,08,02,48,12.90
2020,08,08,02,49,12.90
2020,08,08,02,50,12.90
2020,08,08,02,51,12.90
2020,08,08,02,52,12.90
2020,08,08,02,53,12.90
2020,08,08,02,54,12.90
2020,08,08,02,55,12.90
2020,08,08,02,56,12.90
2020,08,08,02,57,12.90
2020,08,08,02,58,12.90
2020,08,08,02,59,12.90
2020,08,08,03,00,12.90
2020,08,08,03,01,12.90
2020,08,08,03,02,12.90
2020,08,08,03,03,12.90
2020,08,08,03,04,12.90
2020,08,08,03,05,12.90
2020,08,08,03,06,12.90
2020,08,08,03,07,12.90
2020,08,08,03,08,12.90
2020,08,08,03,09,12.90
2020,08,08,03,10,12.90
2020,08,08,03,11,12.90
2020,08,08,03,12,12.90
2020,08,08,03,13,12.90
2020,08,08,03,14,12.90
2020,08,08,03,15,12.90
2020,08,08,03,16,12.90
2020,08,08,03,17,12.90
2020,08,08,03,18,12.90
2020,08,08,03,19,12.90
2020,08,08,03,20,12.90
2020,08,08,03,21,12.90
2020,08,08,03,22,12.90
2020,08,08,03,23,12.90
2020,08,08,03,24,12.90
2020,08,08,03,25,13.00
2020,08,08,03,26,13.00
2020,08,08,03,27,13.00
2020,08,08,03,28,13.00
2020,08,08,03,29,13.00
2020,08,08,03,30,13.00
2020,08,08,03,31,13.00
2020,08,08,03,32,13.00
2020,08,08,03,33,13.00
2020,08,08,03,34,13.00
2020,08,08,03,35,13.00
2020,08,08,03,36,13.00
2020,08,08,03,37,13.00
2020,08,08,03,38,13.00
2020,08,08,03,39,13.00
2020,08,08,03,40,13.00
2020,08,08,03,41,13.00
2020,08,08,03,42,13.00
2020,08,08,03,43,13.00
2020,08,08,03,44,13.00
2020,08,08,03,45,13.00
2020,08,08,03,46,13.00
2020,08,08,03,47,13.00
2020,08,08,03,48,12.90
2020,08,08,03,49,12.90
2020,08,08,03,50,12.90
2020,08,08,03,51,12.90
2020,08,08,03,52,12.90
2020,08,08,03,53,12.90
2020,08,08,03,54,12.90
2020,08,08,03,55,12.90
2020,08,08,03,56,12.90
2020,08,08,03,57,12.90
2020,08,08,03,58,12.90
2020,08,08,03,59,12.90
2020,08,08,04,00,12.90
2020,08,08,04,01,12.90
2020,08,08,04,02,12.90
2020,08,08,04,03,12.80
2020,08,08,04,04,12.80
2020,08,08,04,05,12.80
2020,08,08,04,06,12.80
2020,08,08,04,07,12.80
2020,08,08,04,08,12.80
2020,08,08,04,09,12.80
2020,08,08,04,10,12.80
2020,08,08,04,11,12.80
2020,08,08,04,12,12.80
2020,08,08,04,13,12.80
2020,08,08,04,14,12.80
2020,08,08,04,15,12.80
2020,08,08,04,16,12.80
2020,08,08,04,17,12.80
2020,08,08,04,18,12.80
2020,08,08,04,19,12.90
2020,08,08,04,20,12.90
2020,08,08,04,21,12.90
2020,08,08,04,22,12.90
2020,08,08,04,23,12.90
2020,08,08,04,24,12.90
2020,08,08,04,25,12.90
2020,08,08,04,26,12.90
2020,08,08,04,27,12.90
2020,08,08,04,28,12.90
2020,08,08,04,29,12.90
2020,08,08,04,30,12.90
2020,08,08,04,31,12.90
2020,08,08,04,32,12.90
2020,08,08,04,33,12.90
2020,08,08,04,34,12.90
2020,08,08,04,35,12.90
2020,08,08,04,36,12.90
2020,08,08,04,37,12.90
2020,08,08,04,38,12.90
2020,08,08,04,39,12.90
2020,08,08,04,40,12.90
2020,08,08,04,41,12.90
2020,08,08,04,42,12.90
2020,08,08,04,43,12.90
2020,08,08,04,44,12.90
2020,08,08,04,45,12.90
2020,08,08,04,46,12.90
2020,08,08,04,47,12.90
2020,08,08,04,48,12.90
2020,08,08,04,49,12.90
2020,08,08,04,50,12.90
2020,08,08,04,51,12.90
2020,08,08,04,52,12.90
2020,08,08,04,53,12.90
2020,08,08,04,54,12.90
2020,08,08,04,55,12.90
2020,08,08,04,56,12.90
2020,08,08,04,57,12.90
2020,08,08,04,58,13.00
2020,08,08,04,59,13.00
2020,08,08,05,00,13.00
2020,08,08,05,01,13.00
2020,08,08,05,02,13.00
2020,08,08,05,03,13.00
2020,08,08,05,04,13.00
2020,08,08,05,05,13.00
2020,08,08,05,06,13.00
2020,08,08,05,07,13.00
2020,08,08,05,08,13.00
2020,08,08,05,09,13.00
2020,08,08,05,10,13.00
2020,08,08,05,11,13.00
2020,08,08,05,12,13.00
2020,08,08,05,13,12.90
2020,08,08,05,14,12.90
2020,08,08,05,15,12.90
2020,08,08,05,16,12.90
2020,08,08,05,17,12.90
2020,08,08,05,18,13.00
2020,08,08,05,19,13.00
2020,08,08,05,20,13.00
2020,08,08,05,21,13.00
2020,08,08,05,22,12.90
2020,08,08,05,23,12.90
2020,08,08,05,24,12.90
2020,08,08,05,25,12.90
2020,08,08,05,26,13.00
2020,08,08,05,27,13.00
2020,08,08,05,28,13.00
2020,08,08,05,29,13.00
2020,08,08,05,30,13.00
2020,08,08,05,31,13.00
2020,08,08,05,32,13.00
2020,08,08,05,33,13.00
2020,08,08,05,34,13.00
2020,08,08,05,35,13.10
2020,08,08,05,36,13.10
2020,08,08,05,37,13.10
2020,08,08,05,38,13.10
2020,08,08,05,39,13.10
2020,08,08,05,40,13.10
2020,08,08,05,41,13.10
2020,08,08,05,42,13.00
2020,08,08,05,43,13.00
2020,08,08,05,44,13.00
2020,08,08,05,45,13.00
2020,08,08,05,46,13.00
2020,08,08,05,47,13.00
2020,08,08,05,48,13.00
2020,08,08,05,49,13.00
2020,08,08,05,50,13.00
2020,08,08,05,51,13.10
2020,08,08,05,52,13.10
2020,08,08,05,53,13.10
2020,08,08,05,54,13.10
2020,08,08,05,55,13.10
2020,08,08,05,56,13.10
2020,08,08,05,57,13.10
2020,08,08,05,58,13.10
2020,08,08,05,59,13.10
2020,08,08,06,00,13.10
2020,08,08,06,01,13.10
2020,08,08,06,02,13.10
2020,08,08,06,03,13.10
2020,08,08,06,04,13.10
2020,08,08,06,05,13.10
2020,08,08,06,06,13.10
2020,08,08,06,07,13.10
2020,08,08,06,08,13.10
2020,08,08,06,09,13.10
2020,08,08,06,10,13.10
2020,08,08,06,11,13.10
2020,08,08,06,12,13.20
2020,08,08,06,13,13.20
2020,08,08,06,14,13.20
2020,08,08,06,15,13.20
2020,08,08,06,16,13.20
2020,08,08,06,17,13.20
2020,08,08,06,18,13.20
2020,08,08,06,19,13.20
2020,08,08,06,20,13.20
2020,08,08,06,21,13.20
2020,08,08,06,22,13.20
2020,08,08,06,23,13.20
2020,08,08,06,24,13.20
2020,08,08,06,25,13.20
2020,08,08,06,26,13.20
2020,08,08,06,27,13.20
2020,08,08,06,28,13.20
2020,08,08,06,29,13.20
2020,08,08,06,30,13.20
2020,08,08,06,31,13.20
2020,08,08,06,32,13.20
2020,08,08,06,33,13.20
2020,08,08,06,34,13.20
2020,08,08,06,35,13.20
2020,08,08,06,36,13.20
2020,08,08,06,37,13.20
2020,08,08,06,38,13.20
2020,08,08,06,39,13.20
2020,08,08,06,40,13.20
2020,08,08,06,41,13.20
2020,08,08,06,42,13.20
2020,08,08,06,43,13.20
2020,08,08,06,44,13.20
2020,08,08,06,45,13.20
2020,08,08,06,46,13.20
2020,08,08,06,47,13.20
2020,08,08,06,48,13.20
2020,08,08,06,49,13.20
2020,08,08,06,50,13.20
2020,08,08,06,51,13.20
2020,08,08,06,52,13.20
2020,08,08,06,53,13.30
2020,08,08,06,54,13.30
2020,08,08,06,55,13.30
2020,08,08,06,56,13.30
2020,08,08,06,57,13.20
2020,08,08,06,58,13.20
2020,08,08,06,59,13.20
2020,08,08,07,00,13.20
2020,08,08,07,01,13.20
2020,08,08,07,02,13.20
2020,08,08,07,03,13.20
2020,08,08,07,04,13.20
2020,08,08,07,05,13.20
2020,08,08,07,06,13.20
2020,08,08,07,07,13.20
2020,08,08,07,08,13.20
2020,08,08,07,09,13.20
2020,08,08,07,10,13.20
2020,08,08,07,11,13.20
2020,08,08,07,12,13.20
2020,08,08,07,13,13.20
2020,08,08,07,14,13.20
2020,08,08,07,15,13.20
2020,08,08,07,16,13.20
2020,08,08,07,17,13.20
2020,08,08,07,18,13.20
2020,08,08,07,19,13.20
2020,08,08,07,20,13.30
2020,08,08,07,21,13.30
2020,08,08,07,22,13.30
2020,08,08,07,23,13.30
2020,08,08,07,24,13.30
2020,08,08,07,25,13.40
2020,08,08,07,26,13.40
2020,08,08,07,27,13.40
2020,08,08,07,28,13.40
2020,08,08,07,29,13.40
2020,08,08,07,30,13.40
2020,08,08,07,31,13.50
2020,08,08,07,32,13.50
2020,08,08,07,33,13.50
2020,08,08,07,34,13.50
2020,08,08,07,35,13.50
2020,08,08,07,36,13.60
2020,08,08,07,37,13.50
2020,08,08,07,38,13.50
2020,08,08,07,39,13.50
2020,08,08,07,40,13.50
2020,08,08,07,41,13.60
2020,08,08,07,42,13.60
2020,08,08,07,43,13.60
2020,08,08,07,44,13.60
2020,08,08,07,45,13.60
2020,08,08,07,46,13.60
2020,08,08,07,47,13.60
2020,08,08,07,48,13.60
2020,08,08,07,49,13.60
2020,08,08,07,50,13.60
2020,08,08,07,51,13.60
2020,08,08,07,52,13.60
2020,08,08,07,53,13.60
2020,08,08,07,54,13.70
2020,08,08,07,55,13.70
2020,08,08,07,56,13.70
2020,08,08,07,57,13.80
2020,08,08,07,58,13.80
2020,08,08,07,59,13.80
2020,08,08,08,00,13.80
2020,08,08,08,01,13.90
2020,08,08,08,02,13.90
2020,08,08,08,03,13.90
2020,08,08,08,04,14.00
2020,08,08,08,05,14.00
2020,08,08,08,06,14.00
2020,08,08,08,07,14.10
2020,08,08,08,08,14.10
2020,08,08,08,09,14.10
2020,08,08,08,10,14.10
2020,08,08,08,11,14.10
2020,08,08,08,12,14.10
2020,08,08,08,13,14.10
2020,08,08,08,14,14.10
2020,08,08,08,15,14.10
2020,08,08,08,16,14.10
2020,08,08,08,17,14.20
2020,08,08,08,18,14.20
2020,08,08,08,19,14.20
2020,08,08,08,20,14.20
2020,08,08,08,21,14.20
2020,08,08,08,22,14.20
2020,08,08,08,23,14.20
2020,08,08,08,24,14.20
2020,08,08,08,25,14.30
2020,08,08,08,26,14.30
2020,08,08,08,27,14.30
2020,08,08,08,28,14.30
2020,08,08,08,29,14.30
2020,08,08,08,30,14.30
2020,08,08,08,31,14.30
2020,08,08,08,32,14.30
2020,08,08,08,33,14.30
2020,08,08,08,34,14.40
2020,08,08,08,35,14.40
2020,08,08,08,36,14.40
2020,08,08,08,37,14.40
2020,08,08,08,38,14.40
2020,08,08,08,39,14.40
2020,08,08,08,40,14.40
2020,08,08,08,41,14.40
2020,08,08,08,42,14.50
2020,08,08,08,43,14.50
2020,08,08,08,44,14.50
2020,08,08,08,45,14.50
2020,08,08,08,46,14.50
2020,08,08,08,47,14.50
2020,08,08,08,48,14.60
2020,08,08,08,49,14.60
2020,08,08,08,50,14.60
2020,08,08,08,51,14.60
2020,08,08,08,52,14.60
2020,08,08,08,53,14.60
2020,08,08,08,54,14.70
2020,08,08,08,55,14.70
2020,08,08,08,56,14.70
2020,08,08,08,57,14.70
2020,08,08,08,58,14.70
2020,08,08,08,59,14.70
2020,08,08,09,00,14.70
2020,08,08,09,01,14.80
2020,08,08,09,02,14.80
2020,08,08,09,03,14.80
2020,08,08,09,04,14.90
2020,08,08,09,05,14.90
2020,08,08,09,06,15.00
2020,08,08,09,07,15.00
2020,08,08,09,08,15.00
2020,08,08,09,09,15.00
2020,08,08,09,10,15.00
2020,08,08,09,11,15.00
2020,08,08,09,12,15.00
2020,08,08,09,13,15.00
2020,08,08,09,14,15.00
2020,08,08,09,15,15.00
2020,08,08,09,16,15.00
2020,08,08,09,17,15.00
2020,08,08,09,18,15.00
2020,08,08,09,19,15.00
2020,08,08,09,20,15.00
2020,08,08,09,21,15.00
2020,08,08,09,22,15.00
2020,08,08,09,23,15.10
2020,08,08,09,24,15.10
2020,08,08,09,25,15.10
2020,08,08,09,26,15.10
2020,08,08,09,27,15.10
2020,08,08,09,28,15.10
2020,08,08,09,29,15.10
2020,08,08,09,30,15.20
2020,08,08,09,31,15.20
2020,08,08,09,32,15.20
2020,08,08,09,33,15.20
2020,08,08,09,34,15.30
2020,08,08,09,35,15.30
2020,08,08,09,36,15.40
2020,08,08,09,37,15.40
2020,08,08,09,38,15.40
2020,08,08,09,39,15.50
2020,08,08,09,40,15.50
2020,08,08,09,41,15.60
2020,08,08,09,42,15.60
2020,08,08,09,43,15.60
2020,08,08,09,44,15.70
2020,08,08,09,45,15.70
2020,08,08,09,46,15.70
2020,08,08,09,47,15.70
2020,08,08,09,48,15.70
2020,08,08,09,49,15.70
2020,08,08,09,50,15.70
2020,08,08,09,51,15.70
2020,08,08,09,52,15.70
2020,08,08,09,53,15.80
2020,08,08,09,54,15.80
2020,08,08,09,55,15.80
2020,08,08,09,56,15.90
2020,08,08,09,57,15.90
2020,08,08,09,58,16.00
2020,08,08,09,59,16.00
2020,08,08,10,00,16.00
2020,08,08,10,01,16.10
2020,08,08,10,02,16.10
2020,08,08,10,03,16.20
2020,08,08,10,04,16.20
2020,08,08,10,05,16.30
2020,08,08,10,06,16.30
2020,08,08,10,07,16.40
2020,08,08,10,08,16.40
2020,08,08,10,09,16.40
2020,08,08,10,10,16.50
2020,08,08,10,11,16.60
2020,08,08,10,12,16.60
2020,08,08,10,13,16.60
2020,08,08,10,14,16.60
2020,08,08,10,15,16.70
2020,08,08,10,16,16.80
2020,08,08,10,17,16.80
2020,08,08,10,18,16.90
2020,08,08,10,19,16.90
2020,08,08,10,20,17.00
2020,08,08,10,21,16.90
2020,08,08,10,22,16.90
2020,08,08,10,23,16.80
2020,08,08,10,24,16.80
2020,08,08,10,25,16.80
2020,08,08,10,26,16.80
2020,08,08,10,27,16.90
2020,08,08,10,28,16.90
2020,08,08,10,29,16.90
2020,08,08,10,30,16.90
2020,08,08,10,31,16.90
2020,08,08,10,32,17.00
2020,08,08,10,33,17.00
2020,08,08,10,34,17.10
2020,08,08,10,35,17.20
2020,08,08,10,36,17.20
2020,08,08,10,37,17.20
2020,08,08,10,38,17.20
2020,08,08,10,39,17.30
2020,08,08,10,40,17.30
2020,08,08,10,41,17.30
2020,08,08,10,42,17.40
2020,08,08,10,43,17.40
2020,08,08,10,44,17.40
2020,08,08,10,45,17.40
2020,08,08,10,46,17.40
2020,08,08,10,47,17.50
2020,08,08,10,48,17.50
2020,08,08,10,49,17.50
2020,08,08,10,50,17.50
2020,08,08,10,51,17.60
2020,08,08,10,52,17.70
2020,08,08,10,53,17.70
2020,08,08,10,54,17.80
2020,08,08,10,55,17.80
2020,08,08,10,56,17.80
2020,08,08,10,57,17.80
2020,08,08,10,58,17.70
2020,08,08,10,59,17.60
2020,08,08,11,00,17.60
2020,08,08,11,01,17.60
2020,08,08,11,02,17.60
2020,08,08,11,03,17.60
2020,08,08,11,04,17.70
2020,08,08,11,05,17.70
2020,08,08,11,06,17.80
2020,08,08,11,07,17.90
2020,08,08,11,08,18.00
2020,08,08,11,09,18.10
2020,08,08,11,10,18.10
2020,08,08,11,11,18.20
2020,08,08,11,12,18.20
2020,08,08,11,13,18.30
2020,08,08,11,14,18.40
2020,08,08,11,15,18.50
2020,08,08,11,16,18.70
2020,08,08,11,17,18.70
2020,08,08,11,18,18.70
2020,08,08,11,19,18.70
2020,08,08,11,20,18.70
2020,08,08,11,21,18.70
2020,08,08,11,22,18.70
2020,08,08,11,23,18.70
2020,08,08,11,24,18.70
2020,08,08,11,25,18.80
2020,08,08,11,26,18.80
2020,08,08,11,27,18.70
2020,08,08,11,28,18.60
2020,08,08,11,29,18.60
2020,08,08,11,30,18.50
2020,08,08,11,31,18.50
2020,08,08,11,32,18.50
2020,08,08,11,33,18.50
2020,08,08,11,34,18.50
2020,08,08,11,35,18.60
2020,08,08,11,36,18.70
2020,08,08,11,37,18.80
2020,08,08,11,38,18.80
2020,08,08,11,39,18.80
2020,08,08,11,40,18.80
2020,08,08,11,41,18.90
2020,08,08,11,42,19.00
2020,08,08,11,43,19.00
2020,08,08,11,44,19.10
2020,08,08,11,45,19.20
2020,08,08,11,46,19.30
2020,08,08,11,47,19.40
2020,08,08,11,48,19.40
2020,08,08,11,49,19.40
2020,08,08,11,50,19.50
2020,08,08,11,51,19.60
2020,08,08,11,52,19.70
2020,08,08,11,53,19.80
2020,08,08,11,54,19.90
2020,08,08,11,55,20.00
2020,08,08,11,56,20.30
2020,08,08,11,57,20.30
2020,08,08,11,58,20.20
2020,08,08,11,59,20.20
2020,08,08,12,00,20.30
2020,08,08,12,01,20.30
2020,08,08,12,02,20.40
2020,08,08,12,03,20.40
2020,08,08,12,04,20.40
2020,08,08,12,05,20.30
2020,08,08,12,06,20.30
2020,08,08,12,07,20.20
2020,08,08,12,08,20.20
2020,08,08,12,09,20.20
2020,08,08,12,10,20.10
2020,08,08,12,11,20.00
2020,08,08,12,12,19.90
2020,08,08,12,13,19.90
2020,08,08,12,14,19.90
2020,08,08,12,15,19.90
2020,08,08,12,16,19.90
2020,08,08,12,17,19.80
2020,08,08,12,18,19.80
2020,08,08,12,19,19.70
2020,08,08,12,20,19.70
2020,08,08,12,21,19.70
2020,08,08,12,22,19.60
2020,08,08,12,23,19.70
2020,08,08,12,24,19.70
2020,08,08,12,25,19.60
2020,08,08,12,26,19.60
2020,08,08,12,27,19.60
2020,08,08,12,28,19.60
2020,08,08,12,29,19.60
2020,08,08,12,30,19.60
2020,08,08,12,31,19.60
2020,08,08,12,32,19.60
2020,08,08,12,33,19.60
2020,08,08,12,34,19.60
2020,08,08,12,35,19.70
2020,08,08,12,36,19.70
2020,08,08,12,37,19.60
2020,08,08,12,38,19.60
2020,08,08,12,39,19.70
2020,08,08,12,40,19.70
2020,08,08,12,41,19.70
2020,08,08,12,42,19.80
2020,08,08,12,43,19.90
2020,08,08,12,44,20.00
2020,08,08,12,45,20.10
2020,08,08,12,46,20.20
2020,08,08,12,47,20.30
2020,08,08,12,48,20.40
2020,08,08,12,49,20.40
2020,08,08,12,50,20.30
2020,08,08,12,51,20.30
2020,08,08,12,52,20.30
2020,08,08,12,53,20.30
2020,08,08,12,54,20.30
2020,08,08,12,55,20.40
2020,08,08,12,56,20.40
2020,08,08,12,57,20.30
2020,08,08,12,58,20.30
2020,08,08,12,59,20.30
2020,08,08,13,00,20.40
2020,08,08,13,01,20.40
2020,08,08,13,02,20.40
2020,08,08,13,03,20.40
2020,08,08,13,04,20.40
2020,08,08,13,05,20.50
2020,08,08,13,06,20.60
2020,08,08,13,07,20.70
2020,08,08,13,08,20.70
2020,08,08,13,09,20.80
2020,08,08,13,10,20.80
2020,08,08,13,11,20.80
2020,08,08,13,12,20.80
2020,08,08,13,13,20.80
2020,08,08,13,14,20.90
2020,08,08,13,15,21.10
2020,08,08,13,16,21.10
2020,08,08,13,17,21.10
2020,08,08,13,18,21.10
2020,08,08,13,19,21.10
2020,08,08,13,20,21.20
2020,08,08,13,21,21.30
2020,08,08,13,22,21.30
2020,08,08,13,23,21.30
2020,08,08,13,24,21.20
2020,08,08,13,25,21.10
2020,08,08,13,26,21.00
2020,08,08,13,27,20.90
2020,08,08,13,28,20.90
2020,08,08,13,29,20.80
2020,08,08,13,30,20.90
2020,08,08,13,31,21.00
2020,08,08,13,32,21.10
2020,08,08,13,33,21.20
2020,08,08,13,34,21.10
2020,08,08,13,35,21.10
2020,08,08,13,36,21.10
2020,08,08,13,37,21.20
2020,08,08,13,38,21.30
2020,08,08,13,39,21.30
2020,08,08,13,40,21.20
2020,08,08,13,41,21.10
2020,08,08,13,42,21.00
2020,08,08,13,43,20.90
2020,08,08,13,44,20.90
2020,08,08,13,45,20.90
2020,08,08,13,46,20.80
2020,08,08,13,47,20.80
2020,08,08,13,48,20.90
2020,08,08,13,49,21.00
2020,08,08,13,50,21.00
2020,08,08,13,51,21.00
2020,08,08,13,52,21.00
2020,08,08,13,53,20.90
2020,08,08,13,54,20.80
2020,08,08,13,55,20.60
2020,08,08,13,56,20.50
2020,08,08,13,57,20.40
2020,08,08,13,58,20.50
2020,08,08,13,59,20.60
2020,08,08,14,00,20.60
2020,08,08,14,01,20.70
2020,08,08,14,02,20.80
2020,08,08,14,03,20.80
2020,08,08,14,04,20.80
2020,08,08,14,05,20.70
2020,08,08,14,06,20.70
2020,08,08,14,07,20.70
2020,08,08,14,08,20.70
2020,08,08,14,09,20.80
2020,08,08,14,10,20.80
2020,08,08,14,11,20.90
2020,08,08,14,12,20.90
2020,08,08,14,13,20.90
2020,08,08,14,14,20.90
2020,08,08,14,15,20.90
2020,08,08,14,16,20.90
2020,08,08,14,17,20.90
2020,08,08,14,18,20.80
2020,08,08,14,19,20.80
2020,08,08,14,20,20.80
2020,08,08,14,21,20.80
2020,08,08,14,22,20.80
2020,08,08,14,23,20.80
2020,08,08,14,24,20.80
2020,08,08,14,25,20.80
2020,08,08,14,26,20.80
2020,08,08,14,27,20.70
2020,08,08,14,28,20.70
2020,08,08,14,29,20.70
2020,08,08,14,30,20.70
2020,08,08,14,31,20.60
2020,08,08,14,32,20.60
2020,08,08,14,33,20.60
2020,08,08,14,34,20.50
2020,08,08,14,35,20.40
2020,08,08,14,36,20.40
2020,08,08,14,37,20.40
2020,08,08,14,38,20.40
2020,08,08,14,39,20.30
2020,08,08,14,40,20.40
2020,08,08,14,41,20.30
2020,08,08,14,42,20.40
2020,08,08,14,43,20.40
2020,08,08,14,44,20.40
2020,08,08,14,45,20.40
2020,08,08,14,46,20.50
2020,08,08,14,47,20.50
2020,08,08,14,48,20.50
2020,08,08,14,49,20.60
2020,08,08,14,50,20.60
2020,08,08,14,51,20.70
2020,08,08,14,52,20.80
2020,08,08,14,53,20.80
2020,08,08,14,54,20.80
2020,08,08,14,55,20.90
2020,08,08,14,56,21.00
2020,08,08,14,57,21.10
2020,08,08,14,58,21.20
2020,08,08,14,59,21.30
2020,08,08,15,00,21.40
2020,08,08,15,01,21.40
2020,08,08,15,02,21.50
2020,08,08,15,03,21.60
2020,08,08,15,04,21.50
2020,08,08,15,05,21.50
2020,08,08,15,06,21.30
2020,08,08,15,07,21.10
2020,08,08,15,08,21.00
2020,08,08,15,09,20.90
2020,08,08,15,10,20.80
2020,08,08,15,11,20.80
2020,08,08,15,12,20.80
2020,08,08,15,13,20.70
2020,08,08,15,14,20.70
2020,08,08,15,15,20.70
2020,08,08,15,16,20.60
2020,08,08,15,17,20.70
2020,08,08,15,18,20.70
2020,08,08,15,19,20.70
2020,08,08,15,20,20.70
2020,08,08,15,21,20.70
2020,08,08,15,22,20.70
2020,08,08,15,23,20.70
2020,08,08,15,24,20.70
2020,08,08,15,25,20.60
2020,08,08,15,26,20.50
2020,08,08,15,27,20.40
2020,08,08,15,28,20.40
2020,08,08,15,29,20.40
2020,08,08,15,30,20.40
2020,08,08,15,31,20.50
2020,08,08,15,32,20.50
2020,08,08,15,33,20.40
2020,08,08,15,34,20.40
2020,08,08,15,35,20.40
2020,08,08,15,36,20.40
2020,08,08,15,37,20.30
2020,08,08,15,38,20.40
2020,08,08,15,39,20.40
2020,08,08,15,40,20.40
2020,08,08,15,41,20.30
2020,08,08,15,42,20.20
2020,08,08,15,43,20.10
2020,08,08,15,44,20.10
2020,08,08,15,45,20.10
2020,08,08,15,46,20.10
2020,08,08,15,47,20.10
2020,08,08,15,48,20.00
2020,08,08,15,49,20.00
2020,08,08,15,50,20.00
2020,08,08,15,51,20.00
2020,08,08,15,52,20.00
2020,08,08,15,53,20.00
2020,08,08,15,54,20.00
2020,08,08,15,55,20.10
2020,08,08,15,56,20.10
2020,08,08,15,57,20.20
2020,08,08,15,58,20.20
2020,08,08,15,59,20.20
2020,08,08,16,00,20.20
2020,08,08,16,01,20.20
2020,08,08,16,02,20.30
2020,08,08,16,03,20.30
2020,08,08,16,04,20.30
2020,08,08,16,05,20.30
2020,08,08,16,06,20.30
2020,08,08,16,07,20.30
2020,08,08,16,08,20.30
2020,08,08,16,09,20.30
2020,08,08,16,10,20.40
2020,08,08,16,11,20.40
2020,08,08,16,12,20.50
2020,08,08,16,13,20.50
2020,08,08,16,14,20.60
2020,08,08,16,15,20.70
2020,08,08,16,16,20.80
2020,08,08,16,17,20.90
2020,08,08,16,18,21.00
2020,08,08,16,19,21.00
2020,08,08,16,20,21.00
2020,08,08,16,21,20.90
2020,08,08,16,22,20.90
2020,08,08,16,23,21.00
2020,08,08,16,24,21.00
2020,08,08,16,25,21.10
2020,08,08,16,26,21.00
2020,08,08,16,27,21.00
2020,08,08,16,28,21.10
2020,08,08,16,29,21.20
2020,08,08,16,30,21.20
2020,08,08,16,31,21.20
2020,08,08,16,32,21.20
2020,08,08,16,33,21.20
2020,08,08,16,34,21.20
2020,08,08,16,35,21.20
2020,08,08,16,36,21.20
2020,08,08,16,37,21.20
2020,08,08,16,38,21.20
2020,08,08,16,39,21.20
2020,08,08,16,40,21.20
2020,08,08,16,41,21.10
2020,08,08,16,42,21.10
2020,08,08,16,43,21.00
2020,08,08,16,44,21.10
2020,08,08,16,45,21.00
2020,08,08,16,46,20.90
2020,08,08,16,47,20.70
2020,08,08,16,48,20.60
2020,08,08,16,49,20.50
2020,08,08,16,50,20.40
2020,08,08,16,51,20.30
2020,08,08,16,52,20.30
2020,08,08,16,53,20.20
2020,08,08,16,54,20.20
2020,08,08,16,55,20.30
2020,08,08,16,56,20.30
2020,08,08,16,57,20.30
2020,08,08,16,58,20.40
2020,08,08,16,59,20.40
2020,08,08,17,00,20.40
2020,08,08,17,01,20.40
2020,08,08,17,02,20.40
2020,08,08,17,03,20.40
2020,08,08,17,04,20.40
2020,08,08,17,05,20.40
2020,08,08,17,06,20.40
2020,08,08,17,07,20.40
2020,08,08,17,08,20.40
2020,08,08,17,09,20.40
2020,08,08,17,10,20.50
2020,08,08,17,11,20.60
2020,08,08,17,12,20.60
2020,08,08,17,13,20.70
2020,08,08,17,14,20.80
2020,08,08,17,15,20.90
2020,08,08,17,16,21.00
2020,08,08,17,17,21.00
2020,08,08,17,18,21.00
2020,08,08,17,19,21.00